TimeCST,TemperatureF,Dew PointF,Humidity,Sea Level PressureIn,VisibilityMPH,Wind Direction,Wind SpeedMPH,Gust SpeedMPH,PrecipitationIn,Events,Conditions,WindDirDegrees,DateUTC
12:15 AM,53.6,51.8,94,30.11,10.0,East,12.7,19.6,N/A,,Overcast,100,2013-01-10 06:15:00
12:35 AM,53.6,51.8,94,30.10,7.0,East,12.7,-,N/A,,Overcast,90,2013-01-10 06:35:00
12:55 AM,53.6,51.8,94,30.09,1.8,East,13.8,20.7,N/A,,Overcast,90,2013-01-10 06:55:00
2:15 AM,53.6,51.8,94,30.06,4.0,East,15.0,-,N/A,,Overcast,90,2013-01-10 08:15:00
2:35 AM,53.6,51.8,94,30.06,4.0,East,15.0,19.6,N/A,,Overcast,80,2013-01-10 08:35:00
2:55 AM,53.6,51.8,94,30.05,1.8,East,15.0,19.6,N/A,,Overcast,80,2013-01-10 08:55:00
3:15 AM,53.6,51.8,94,30.04,2.0,East,13.8,18.4,N/A,,Overcast,80,2013-01-10 09:15:00
3:35 AM,53.6,51.8,94,30.03,1.8,East,16.1,-,N/A,,Overcast,90,2013-01-10 09:35:00
3:55 AM,53.6,51.8,94,30.02,4.0,East,13.8,19.6,N/A,,Overcast,90,2013-01-10 09:55:00
4:15 AM,53.6,51.8,94,30.02,4.0,East,12.7,-,0.01,,Overcast,90,2013-01-10 10:15:00
4:35 AM,53.6,51.8,94,30.00,7.0,East,12.7,18.4,0.01,,Overcast,80,2013-01-10 10:35:00
4:55 AM,53.6,51.8,94,30.00,10.0,East,13.8,-,0.01,,Overcast,90,2013-01-10 10:55:00
5:15 AM,53.6,51.8,94,30.00,4.0,East,15.0,18.4,N/A,,Overcast,100,2013-01-10 11:15:00
5:35 AM,53.6,51.8,94,30.00,5.0,East,15.0,-,N/A,,Overcast,100,2013-01-10 11:35:00
5:55 AM,53.6,51.8,94,29.99,3.0,East,13.8,20.7,N/A,,Overcast,100,2013-01-10 11:55:00
6:15 AM,53.6,51.8,94,29.98,10.0,East,12.7,18.4,N/A,,Overcast,90,2013-01-10 12:15:00
6:35 AM,53.6,51.8,94,29.97,10.0,East,15.0,-,N/A,,Overcast,90,2013-01-10 12:35:00
6:55 AM,53.6,51.8,94,29.97,10.0,East,12.7,17.3,N/A,,Overcast,90,2013-01-10 12:55:00
7:35 AM,53.6,53.6,100,29.97,10.0,East,9.2,-,N/A,,Overcast,100,2013-01-10 13:35:00
8:15 AM,53.6,53.6,100,29.99,3.0,East,6.9,-,0.01,,Overcast,100,2013-01-10 14:15:00
8:35 AM,55.4,53.6,94,29.98,2.0,East,8.1,-,0.02,,Overcast,90,2013-01-10 14:35:00
8:55 AM,55.4,53.6,94,29.97,4.0,East,6.9,-,0.02,,Overcast,90,2013-01-10 14:55:00
9:15 AM,55.4,53.6,94,29.97,10.0,ESE,6.9,-,N/A,,Overcast,110,2013-01-10 15:15:00
9:35 AM,55.4,53.6,94,29.97,10.0,SE,4.6,-,N/A,,Overcast,130,2013-01-10 15:35:00
9:55 AM,55.4,53.6,94,29.97,10.0,SE,3.5,-,N/A,,Overcast,140,2013-01-10 15:55:00
10:15 AM,55.4,55.4,100,29.97,10.0,SE,8.1,-,N/A,,Overcast,140,2013-01-10 16:15:00
10:35 AM,57.2,55.4,94,29.96,10.0,SE,9.2,-,N/A,,Overcast,140,2013-01-10 16:35:00
10:55 AM,59.0,55.4,88,29.95,10.0,SSE,9.2,-,N/A,,Overcast,160,2013-01-10 16:55:00
11:15 AM,59.0,57.2,94,29.95,10.0,SSE,8.1,-,N/A,,Overcast,160,2013-01-10 17:15:00
11:55 AM,62.6,60.8,94,29.93,10.0,South,9.2,-,N/A,,Mostly Cloudy,180,2013-01-10 17:55:00
12:15 PM,62.6,59.0,88,29.92,10.0,South,11.5,-,N/A,,Mostly Cloudy,190,2013-01-10 18:15:00
12:35 PM,62.6,60.8,94,29.90,10.0,South,11.5,16.1,N/A,,Scattered Clouds,180,2013-01-10 18:35:00
12:55 PM,64.4,55.4,73,29.89,10.0,South,13.8,-,N/A,,Mostly Cloudy,190,2013-01-10 18:55:00
1:15 PM,62.6,53.6,72,29.89,10.0,SSW,16.1,19.6,N/A,,Mostly Cloudy,210,2013-01-10 19:15:00
1:35 PM,64.4,53.6,68,29.87,10.0,South,16.1,24.2,N/A,,Scattered Clouds,190,2013-01-10 19:35:00
1:55 PM,64.4,50.0,59,29.86,10.0,South,17.3,-,N/A,,Scattered Clouds,190,2013-01-10 19:55:00
2:15 PM,64.4,50.0,59,29.87,10.0,SSW,13.8,20.7,N/A,,Scattered Clouds,200,2013-01-10 20:15:00
2:35 PM,62.6,50.0,63,29.87,10.0,SSW,13.8,23.0,N/A,,Mostly Cloudy,200,2013-01-10 20:35:00
2:55 PM,62.6,50.0,63,29.87,10.0,SSW,13.8,17.3,N/A,,Scattered Clouds,210,2013-01-10 20:55:00
3:15 PM,62.6,48.2,59,29.87,10.0,SW,18.4,21.9,N/A,,Mostly Cloudy,220,2013-01-10 21:15:00
3:35 PM,62.6,48.2,59,29.87,10.0,SW,13.8,19.6,N/A,,Mostly Cloudy,230,2013-01-10 21:35:00
3:55 PM,60.8,48.2,63,29.88,10.0,WSW,13.8,19.6,N/A,,Mostly Cloudy,240,2013-01-10 21:55:00
4:15 PM,60.8,48.2,63,29.89,10.0,WSW,11.5,-,N/A,,Overcast,250,2013-01-10 22:15:00
4:35 PM,60.8,46.4,59,29.89,10.0,WSW,12.7,18.4,N/A,,Scattered Clouds,240,2013-01-10 22:35:00
4:55 PM,60.8,46.4,59,29.90,10.0,WSW,17.3,24.2,N/A,,Clear,240,2013-01-10 22:55:00
5:15 PM,59.0,44.6,59,29.90,10.0,SW,12.7,19.6,N/A,,Clear,230,2013-01-10 23:15:00
5:35 PM,57.2,44.6,63,29.92,10.0,WSW,11.5,-,N/A,,Clear,240,2013-01-10 23:35:00
5:55 PM,55.4,44.6,67,29.93,10.0,WSW,9.2,16.1,N/A,,Scattered Clouds,240,2013-01-10 23:55:00
6:15 PM,55.4,44.6,67,29.94,10.0,SW,9.2,-,N/A,,Mostly Cloudy,230,2013-01-11 00:15:00
6:35 PM,55.4,44.6,67,29.94,10.0,SW,10.4,-,N/A,,Overcast,220,2013-01-11 00:35:00
6:55 PM,55.4,44.6,67,29.95,10.0,WSW,6.9,-,N/A,,Overcast,240,2013-01-11 00:55:00
7:15 PM,55.4,44.6,67,29.96,10.0,WSW,12.7,-,N/A,,Mostly Cloudy,240,2013-01-11 01:15:00
7:35 PM,53.6,44.6,72,29.96,10.0,WSW,12.7,16.1,N/A,,Mostly Cloudy,240,2013-01-11 01:35:00
7:55 PM,53.6,42.8,67,29.97,10.0,WSW,10.4,18.4,N/A,,Overcast,240,2013-01-11 01:55:00
8:15 PM,53.6,42.8,67,29.96,10.0,SW,9.2,-,N/A,,Overcast,230,2013-01-11 02:15:00
8:35 PM,51.8,42.8,71,29.97,10.0,SSW,6.9,-,N/A,,Mostly Cloudy,210,2013-01-11 02:35:00
8:55 PM,50.0,42.8,76,29.97,10.0,SSW,8.1,-,N/A,,Scattered Clouds,200,2013-01-11 02:55:00
9:15 PM,50.0,42.8,76,29.96,10.0,SSW,6.9,-,N/A,,Clear,200,2013-01-11 03:15:00
9:35 PM,46.4,41.0,81,29.97,10.0,SSW,6.9,-,N/A,,Clear,210,2013-01-11 03:35:00
9:55 PM,46.4,42.8,87,29.97,10.0,SSW,9.2,-,N/A,,Clear,200,2013-01-11 03:55:00
10:15 PM,48.2,42.8,82,29.97,10.0,SSW,9.2,-,N/A,,Clear,210,2013-01-11 04:15:00
10:35 PM,48.2,42.8,82,29.97,10.0,SSW,9.2,-,N/A,,Clear,200,2013-01-11 04:35:00
10:55 PM,48.2,42.8,82,29.97,10.0,SSW,8.1,-,N/A,,Clear,200,2013-01-11 04:55:00
11:15 PM,46.4,42.8,87,29.96,10.0,SSW,8.1,-,N/A,,Clear,200,2013-01-11 05:15:00
11:35 PM,46.4,41.0,81,29.97,10.0,South,6.9,-,N/A,,Clear,190,2013-01-11 05:35:00
11:55 PM,44.6,41.0,87,29.97,10.0,South,6.9,-,N/A,,Clear,190,2013-01-11 05:55:00